一网星座-0653星 (ONEWEB-0653)

导读 | 星芒AI

ONEWEB-0653 是 OneWeb 卫星星座计划中的一颗低轨通信卫星,旨在为全球提供高速互联网服务。该卫星由阿丽亚娜集团制造,采用标准化设计以提高部署效率。它运行在约 1200 公里的近地轨道,与其他 OneWeb 卫星共同构建覆盖全球的宽带网络,特别服务于偏远和网络基础设施薄弱的地区。该卫星于近期成功发射,进一步推动 OneWeb 恢复并扩展其商业运营能力。

基本信息
目录编号:
55815
目录名称:
ONEWEB-0653
国际标识:
2023-029V
轨道中心:
EARTH
卫星名称:
一网星座-0653星
卫星全名:
一网星座-0653星 (ONEWEB-0653)
卫星状态:
在轨 (已飞行1013 天)
发射日期:
2023-03-09 UTC
国别 :
英国 (GB)
星等 :
--
轨道信息
数据来源 国际轨道数据
星历时间: 2025-12-15T15:54:00+0800
18小时前
查看轨道信息
半长轴: 7583.923km
偏心率: 0.0001891
轨道倾角: 87.899°
近地点辐角 89.239°
升交点赤经 326.344°
平近点角 270.896°
近地点: 1204.353km
远地点: 1207.223km
周期: 109.547分钟
每日圈数: 13.14504
详细信息
平衡模式:
三轴稳定
覆盖范围:
全球
运营商:
一网卫星公司
运营商所在国:
英国
制造商(研发单位):
一网卫星公司
制造商所在国:
英国
使用方式:
暂无
卫星简介
OneWeb卫星网络由648颗重约125公斤的微型卫星组成,运行在1200公里的轨道上。 每颗卫星都能够提供至少每秒8千兆位的吞吐量,以使用其高吞吐量的Ku频段有效载荷为家庭和移动平台提供互联网接入。该卫星仍在工作。
2D轨道图
3D轨道图
轨道高度分析图
轨道倾角分析图
轨道综合分析图
查看轨道综合分析图